Weather History for KBIL - July, 2013

Change the Weather History Date:

Wednesday, July 24, 2013

  Actual Average Record
Temperature  
Mean Temperature 79 °F 74 °F  
Max Temperature 95 °F 88 °F 105 °F (1999)
Min Temperature 62 °F 60 °F 49 °F (2004)
Degree Days  
Heating Degree Days 0 0  
Month to date heating degree days 0 12  
Since 1 June heating degree days 73 108  
Since 1 July heating degree days 0 12  
Cooling Degree Days 14 9  
Month to date cooling degree days 261 189  
Year to date cooling degree days 384 291  
Since 1 June cooling degree days 357 274  
Growing Degree Days 30 (Base 50)    
Moisture  
Dew Point 48 °F    
Average Humidity 38    
Maximum Humidity 60    
Minimum Humidity 16    
Precipitation  
Precipitation T in 0.04 in 0.30 in (1993)
Month to date precipitation 0.51 1.07  
Year to date precipitation 7.83 9.05  
Snow  
Snow 0.00 in 0.00 in 0.00 in (2002)
Month to date snowfall 0.0 0.0  
Since 1 June snowfall 0.0 0.0  
Since 1 July snowfall 0.0 0.0  
Snow Depth 0.00 in    
Sea Level Pressure  
Sea Level Pressure 29.94 in    
Wind  
Wind Speed 10 mph (ENE)    
Max Wind Speed 29 mph    
Max Gust Speed 37 mph    
Visibility 10 miles    
Events Rain , Thunderstorm    
T = Trace of Precipitation, MM = Missing Value Source: NWS Daily Summary

Daily Weather History Graph

Daily Weather History Graph

Search for Another Location

Airport or City:

Trip Planner

Search our weather history database for the weather conditions in past years. The results will help you decide how hot, cold, wet, or windy it might be!

Date:

Astronomy

Jul. 24, 2013 Rise Set
Actual Time 5:48 AM MDT 8:52 PM MDT
Civil Twilight 5:12 AM MDT 9:27 PM MDT
Nautical Twilight 4:27 AM MDT 10:13 PM MDT
Astronomical Twilight 3:31 AM MDT 11:08 PM MDT
Moon 9:47 PM MDT (7/24) 8:22 AM MDT (7/24)
Length of Visible Light 16h 14m
Length of Day
15h 03m
Waning Gibbous, 94% of the Moon is Illuminated
Jul 24
Waning Gibbous
Jul 29
Last Quarter
Aug 6
New
Aug 14
First Quarter
Aug 20
Full

Hourly Weather History & Observations

Time (MDT) Temp. Heat Index Dew Point Humidity Pressure Visibility Wind Dir Wind Speed Gust Speed Precip Events Conditions
12:53 AM 70.0 °F - 50.0 °F 49% 30.04 in 10.0 mi North 4.6 mph - N/A   Clear
1:53 AM 69.1 °F - 50.0 °F 51% 30.04 in 10.0 mi Calm Calm - N/A   Clear
2:53 AM 69.1 °F - 50.0 °F 51% 30.02 in 10.0 mi North 5.8 mph - N/A   Clear
3:53 AM 66.0 °F - 50.0 °F 56% 30.02 in 10.0 mi North 5.8 mph - N/A   Partly Cloudy
4:53 AM 66.0 °F - 50.0 °F 56% 30.01 in 10.0 mi NNE 5.8 mph - N/A   Partly Cloudy
5:53 AM 64.0 °F - 50.0 °F 60% 30.02 in 10.0 mi NNW 6.9 mph - N/A   Clear
6:53 AM 64.9 °F - 50.0 °F 58% 30.03 in 10.0 mi North 5.8 mph - N/A   Clear
7:53 AM 66.9 °F - 51.1 °F 57% 30.03 in 10.0 mi NNE 8.1 mph - N/A   Clear
8:53 AM 73.0 °F - 52.0 °F 48% 30.02 in 10.0 mi Variable 3.5 mph - N/A   Partly Cloudy
9:53 AM 77.0 °F - 53.1 °F 43% 30.01 in 10.0 mi NE 5.8 mph - N/A   Partly Cloudy
10:53 AM 80.1 °F 80.0 °F 54.0 °F 40% 29.99 in 10.0 mi ENE 8.1 mph - N/A   Partly Cloudy
11:53 AM 84.9 °F - 51.1 °F 31% 29.96 in 10.0 mi East 9.2 mph - N/A   Partly Cloudy
12:53 PM 89.1 °F - 46.0 °F 22% 29.93 in 10.0 mi East 15.0 mph 20.7 mph N/A   Partly Cloudy
1:53 PM 91.0 °F - 44.1 °F 20% 29.90 in 10.0 mi ESE 13.8 mph 21.9 mph N/A   Partly Cloudy
2:53 PM 93.0 °F - 45.0 °F 19% 29.88 in 10.0 mi East 16.1 mph 21.9 mph N/A   Partly Cloudy
3:53 PM 93.9 °F - 44.1 °F 18% 29.86 in 10.0 mi SE 9.2 mph 19.6 mph N/A   Partly Cloudy
4:42 PM 95.0 °F - 43.0 °F 17% 29.96 in 10.0 mi ESE 10.4 mph - N/A   Clear
4:53 PM 93.9 °F - 44.1 °F 18% 29.84 in 10.0 mi SSE 10.4 mph - N/A   Partly Cloudy
5:53 PM 93.0 °F - 41.0 °F 16% 29.83 in 10.0 mi SSE 4.6 mph - N/A   Partly Cloudy
6:53 PM 91.9 °F - 44.1 °F 19% 29.81 in 10.0 mi SSE 6.9 mph - N/A   Partly Cloudy
7:53 PM 91.0 °F - 42.1 °F 18% 29.81 in 10.0 mi East 8.1 mph - N/A   Scattered Clouds
8:53 PM 82.0 °F - 42.1 °F 24% 29.84 in 10.0 mi NNE 17.3 mph 23.0 mph N/A   Scattered Clouds
9:53 PM 77.0 °F - 45.0 °F 32% 29.85 in 10.0 mi NE 9.2 mph - N/A   Scattered Clouds
10:53 PM 75.9 °F - 45.0 °F 33% 29.87 in 10.0 mi North 11.5 mph - N/A   Partly Cloudy
11:12 PM 75.9 °F - 48.0 °F 37% 30.00 in 10.0 mi NNE 23.0 mph 31.1 mph N/A Thunderstorm Thunderstorm
11:45 PM 69.1 °F - 54.0 °F 58% 30.01 in 10.0 mi North 15.0 mph - 0.00 in Rain Light Rain
11:53 PM 69.1 °F - 53.1 °F 57% 29.90 in 10.0 mi NE 16.1 mph - 0.00 in   Scattered Clouds